Content
SEND FEEDBACK

Daily
Averages
Monthly
Summary
United States of America

GRAHAM, NORTH CAROLINA


Home > North America > United States > North Carolina
Elevation: 66 feet     Latitude: 36 04N     Longitude: 079 24W

WEATHER
 
SELECT A DAY
Number of Records: 174,627;   Date Range: 7/1/98 - 10/19/14
 
SHARE

PRINT THIS DATA

[ ← Previous Day ]
WEATHER ALMANAC - NOVEMBER 9, 2013
[ Next Day → ]
[ °C ]   °F
Weather ElementAverageHighLow
Temperature44.1 °F57.9 °F (1:54 pm)28 °F (1:54 am)
Dewpoint26.4 °F32 °F (8:54 am)21.9 °F (11:54 am)
Humidity55.1 %85 % (1:54 am)25 % (1:54 pm)
Barometer30.29 in30.38 in (7:54 am)30.19 in (10:54 pm)
Wind Speed4.3 mph10.4 mph (11:54 am)
Weather ElementAverage
Visibility10 mi
Wind DirectionSE (133 °)

Weather ElementTotal
Precipitation---
Heating Degree Days22.1 (Base 65)
Averaged from 23 records on November 9, 2013
WEATHER CONDITIONS BREAKOUT
WIND DIRECTION BREAKOUT
WEATHER BY HOUR - NOVEMBER 9, 2013
[ °C ]   °F
Local TimeTemperatureDewpointHumidityBarometerVisibilityWind DirectionWind SpeedGust SpeedPrecipitationEventsConditions
1:54 AM28.0 °F24.1 °F85 %30.34 in10.0 miNE (50°)3.5 mphClear
2:54 AM28.9 °F25.0 °F85 %30.34 in9.0 miSW (220°)5.8 mphClear
3:54 AM30.9 °F26.1 °F82 %30.33 in10.0 miCalmClear
4:54 AM30.0 °F26.1 °F85 %30.34 in10.0 miCalmClear
5:54 AM30.0 °F26.1 °F85 %30.36 in10.0 miCalmClear
6:54 AM30.0 °F25.0 °F82 %30.37 in10.0 miCalmClear
7:54 AM33.1 °F28.9 °F85 %30.38 in10.0 miCalmClear
8:54 AM42.1 °F32.0 °F67 %30.38 in10.0 miCalmClear
9:54 AM48.0 °F28.9 °F48 %30.38 in10.0 miCalmClear
10:54 AM53.1 °F24.1 °F32 %30.35 in10.0 miSSW (210°)6.9 mphClear
11:54 AM55.9 °F21.9 °F27 %30.32 in10.0 miSSW (200°)10.4 mphClear
12:54 PM57.0 °F23.0 °F27 %30.28 in10.0 miWSW (250°)10.4 mphClear
1:54 PM57.9 °F21.9 °F25 %30.25 in10.0 miWSW (240°)10.4 mphClear
2:54 PM57.0 °F23.0 °F27 %30.25 in10.0 miSW (220°)8.1 mphClear
3:54 PM55.9 °F25.0 °F30 %30.24 in10.0 miSSW (210°)8.1 mphClear
4:54 PM55.0 °F25.0 °F31 %30.25 in10.0 miSSW (210°)6.9 mphClear
5:54 PM52.0 °F26.1 °F37 %30.25 in10.0 miSSW (200°)4.6 mphClear
6:54 PM51.1 °F27.0 °F39 %30.24 in10.0 miSouth (180°)3.5 mphClear
7:54 PM46.9 °F28.9 °F50 %30.22 in10.0 miCalmClear
8:54 PM45.0 °F28.9 °F53 %30.20 in10.0 miSSW (210°)4.6 mphClear
9:54 PM43.0 °F28.9 °F58 %30.20 in10.0 miSSW (200°)4.6 mphClear
10:54 PM42.1 °F30.0 °F62 %30.19 in10.0 miSW (220°)4.6 mphClear
11:54 PM42.1 °F30.9 °F65 %30.19 in10.0 miWSW (240°)6.9 mphClear
Hourly data recorded from KBUY, located miles away from Graham, North Carolina







STORIES FROM OUR PARTNERS